sat.trackr.live / text

‹ back to catalog

STARLINK-6296

NORAD 56773 · 2023-078G

PAYLOAD ACTIVE UNKNOWN

§ Identity

Operator
Country
US
Launch date
2023-05-31
Launch site
AFWTR
Launch vehicle
Mass (kg)
RCS (m²)

Purposes: comms

External: N2YO · Heavens-Above · Gunter

§ Orbital elements

Epoch: 2026-05-25T03:21:05.316768Z

Period
96.11 min
Inclination
69.9993°
Eccentricity
0.0003682
Mean motion
14.98332651 rev/d
Perigee alt
569.5 km
Apogee alt
574.6 km
Semi-major
6,950.2 km
B*
1.3932e-5
RAAN
111.8710°
Arg perigee
266.4064°
Mean anomaly
93.6674°
Rev number
16,511

§ Raw data

STARLINK-62961 56773U 23078G   26145.13964487  .00000073  00000+0  13932-4 0  99992 56773  69.9993 111.8710 0003682 266.4064  93.6674 14.98332651165112

JSON: /api/v1/satellites/56773 · /tle

For live sub-satellite position, see the globe view (requires WebGL).

§ Visibility from observer

Set your observer location to see the next 7 days of passes ≥ 10°. The values pass through the URL so the page stays shareable.

No JS? Fill the form by hand. The geolocation button needs JavaScript.